Terug naar catalogus

CZ-2D DEB

ActiefPO
NORAD 43490·DEBRIS·🇨🇳 China

Gelanceerd Jun 2, 2018 vanaf Jiuquan Satellite Launch Center

Loading…

Volgende Passages (komende 24 uur)

TLE

VersSource: Space-Track

Epoch: Sep 14, 2026, 10:50 UTC

1 43490U 18048E   26257.45194977  .00003023  00000-0  26804-3 0  9990
2 43490  98.2822  70.2362 0021738 210.7628 149.2319 14.96879882447534

Volg CZ-2D DEB in realtime met AllMySat

Download on the App Store